RH
27 28 23 16 16 17 14 14 11 10 8 7 6 5 6 5 6 9 12 14 16 17 18 17 16 16 16 16 16 17 19 17 14 9 7 10 11 11 10 10 10 10 10
30 30 29 19 16 16 17 17 14 12 11 11 10 10 10 12 12 14 15 16 18 18 17 17 17 16 15 15 16 16 17 15 12 8 8 12 12 11 11 12 12 12 12
18 24 33 29 18 15 16 17 16 14 13 13 13 13 13 14 14 16 17 17 17 17 18 19 21 20 19 17 17 17 16 15 12 8 8 11 12 11 12 12 12 12 11
16 18 26 33 21 15 16 16 16 15 14 14 14 14 15 16 16 16 17 18 18 19 20 22 24 23 22 20 19 18 17 17 10 8 8 11 12 11 11 11 12 12 10
18 17 25 35 27 16 16 16 16 16 16 16 15 16 16 17 17 17 17 18 19 20 21 22 23 22 22 20 20 17 17 17 13 8 8 10 12 11 11 11 11 12 13
16 16 21 37 36 18 17 17 17 17 17 17 17 17 17 17 17 17 18 18 18 19 19 20 20 20 19 18 17 15 16 17 16 10 8 8 12 11 10 10 11 11 12
17 16 19 33 39 20 18 18 19 19 20 20 19 19 18 18 18 18 19 18 18 18 19 20 20 19 18 18 16 15 14 15 16 16 9 8 8 11 11 11 11 11 11
19 20 18 28 32 20 18 18 18 19 20 21 22 24 23 21 21 21 21 20 20 20 19 20 20 19 18 18 17 16 16 15 14 16 15 10 8 8 9 10 10 11 11
23 24 30 24 28 23 21 24 28 26 22 20 20 21 23 26 27 24 24 24 24 23 22 21 20 19 18 18 18 16 16 17 16 15 16 15 11 9 8 8 8 9 11
26 32 37 33 28 28 30 32 34 38 41 38 35 31 27 22 22 27 30 29 27 26 25 24 22 21 19 18 18 17 16 17 17 15 16 15 14 12 10 10 9 8 9
30 35 27 26 30 34 40 43 41 39 43 50 52 51 48 43 36 27 24 29 34 32 29 27 27 26 24 22 19 19 16 17 17 17 16 14 14 14 11 10 11 11 10
28 29 33 37 42 40 33 31 32 43 48 51 54 58 64 63 62 59 54 40 26 31 37 35 30 28 28 28 25 22 19 18 17 18 18 16 14 12 12 11 11 12 12
24 26 28 34 44 46 47 50 48 33 37 47 50 51 55 60 66 65 67 69 66 41 28 36 41 38 35 35 34 30 27 22 19 18 19 18 18 15 13 13 13 13 13
30 28 26 28 37 44 44 36 40 54 35 32 34 41 50 54 54 51 51 53 60 70 72 40 33 42 45 46 45 45 44 36 29 25 22 20 19 19 18 16 15 14 12
26 28 31 33 40 40 40 37 34 34 44 34 34 34 39 54 59 53 49 49 52 51 64 76 53 35 37 44 49 52 56 56 54 52 43 33 24 20 20 19 19 18 17
28 26 30 37 40 32 32 33 34 32 36 36 35 38 41 55 65 66 63 59 57 58 57 59 71 66 44 38 38 40 59 63 62 59 57 58 58 50 34 23 20 20 20
27 24 28 30 30 33 36 35 37 34 33 33 34 35 36 37 37 36 38 42 53 56 59 59 61 57 60 70 62 50 48 57 72 68 60 62 65 66 66 63 47 26 21
28 26 27 32 37 41 40 40 38 38 38 38 37 37 36 40 44 41 50 47 62 62 76 75 71 68 63 60 59 62 67 66 69 72 69 62 59 61 62 65 66 67 59
32 26 30 32 36 40 45 44 43 43 44 43 42 41 41 42 47 50 65 89 82 95 87 97 86 87 86 76 73 73 67 65 62 62 61 71 77 70 70 67 66 68 72
43 41 38 37 28 36 44 48 49 48 48 44 43 44 42 40 38 38 37 37 39 45 72 75 83 81 84 73 95 67 62 62 72 70 72 81 62 64 63 75 82 77 77
44 44 42 40 34 26 35 44 47 47 42 40 38 36 34 28 21 14 10 11 12 16 22 28 30 34 62 74 86 66 51 70 75 62 81 91 100 80 96 78 86 82 82
44 46 44 43 38 33 34 40 43 42 37 27 15 10 9 11 14 14 14 13 10 9 8 9 11 14 19 28 35 36 36 44 53 69 89 93 86 99 79 84 97 95 92
45 46 45 44 41 39 42 43 38 28 16 11 10 13 19 21 22 24 24 22 14 9 7 7 7 8 8 9 13 22 35 66 67 77 77 85 89 85 100 100 91 100 86
46 48 48 45 41 41 42 39 30 21 15 14 15 16 16 20 23 24 21 16 10 8 7 6 6 7 7 7 13 16 24 47 73 76 84 75 72 90 92 96 91 85 84
52 51 49 45 42 41 42 38 32 24 21 20 20 20 22 26 27 26 20 13 6 5 5 5 5 10 14 16 17 17 23 26 28 45 52 68 70 68 85 92 99 92 96
53 52 50 46 44 44 44 44 38 29 24 22 24 26 28 29 31 30 18 6 5 5 7 8 10 14 20 25 35 42 36 37 32 33 43 43 70 53 78 99 100 100 99
Wind_Speed
9 8 9 7 6 5 7 7 8 7 8 6 5 4 4 4 4 4 5 5 5 4 4 4 4 5 6 7 7 6 5 3 2 3 4 6 6 7 7 8 9 9 9
8 6 7 8 7 5 5 5 8 8 7 7 6 5 5 4 4 4 4 3 2 2 3 5 6 6 7 7 7 7 6 5 3 3 4 5 5 5 6 7 8 8 8
6 5 7 9 9 7 6 5 6 7 8 7 7 5 5 4 3 4 2 2 1 2 3 5 5 7 7 8 9 8 6 6 5 2 3 3 3 4 5 6 6 7 8
6 3 4 9 10 8 7 6 5 5 7 6 5 4 4 5 4 2 2 2 2 4 5 6 6 7 8 8 8 8 6 5 3 3 3 3 3 2 4 5 5 7 8
5 5 2 8 10 10 8 6 5 4 4 5 4 4 3 4 3 3 3 3 3 5 7 7 7 7 7 8 8 8 6 4 2 4 3 3 3 3 2 3 4 5 7
5 5 3 4 10 12 10 8 6 5 3 4 4 3 3 3 2 3 2 2 4 5 7 8 8 7 9 10 9 8 6 4 4 4 5 4 5 5 3 2 4 5 6
4 4 3 2 10 13 12 9 8 8 7 6 4 4 4 4 5 4 3 3 4 4 5 6 7 7 8 10 11 9 7 4 3 5 7 6 5 8 6 5 5 6 6
2 2 2 4 10 14 13 11 10 9 9 9 9 9 7 7 7 6 5 5 5 5 5 6 6 7 7 9 11 11 10 6 4 4 6 8 8 7 7 8 7 8 8
1 1 0 2 8 11 13 12 11 11 11 12 12 11 10 9 9 8 8 7 7 8 7 7 7 7 7 7 9 11 11 10 8 6 6 8 9 10 10 10 9 8 9
5 4 4 4 6 9 10 11 11 10 11 12 12 12 12 12 12 11 11 10 10 10 10 10 10 10 10 9 10 11 11 11 8 8 8 9 10 10 11 11 12 11 10
7 7 7 7 7 9 10 11 12 12 12 12 12 13 13 13 14 14 14 14 14 14 13 13 13 12 12 11 12 13 13 12 10 8 9 9 11 12 12 13 13 13 14
13 12 11 11 11 10 10 11 13 15 16 15 15 15 16 16 16 15 16 16 16 18 17 17 17 16 15 16 15 15 16 15 13 11 11 12 11 13 14 14 15 15 16
14 16 18 18 17 16 16 16 17 17 17 17 19 19 19 19 19 18 17 18 18 19 20 21 21 21 20 20 19 19 19 19 17 15 13 15 15 14 15 17 17 16 16
16 20 21 20 19 16 14 14 17 20 20 18 20 21 21 21 20 19 18 17 19 21 22 23 24 24 25 23 24 24 23 21 21 20 17 16 18 17 17 18 19 18 17
21 20 19 16 19 18 21 22 19 18 21 21 21 21 22 21 21 22 21 21 20 20 21 23 26 27 28 29 29 27 26 25 25 24 22 21 20 21 20 19 20 20 19
27 22 19 19 22 24 23 20 19 17 19 20 21 22 21 20 21 22 23 24 24 24 24 24 25 27 29 31 31 31 29 29 30 31 30 26 23 23 24 23 23 23 22
23 20 20 21 25 24 21 17 15 17 17 19 21 20 20 21 22 22 23 23 25 28 30 28 27 30 30 31 32 33 34 33 32 32 31 31 31 29 28 28 26 25 26
17 15 17 17 21 23 21 18 15 13 15 17 19 21 22 23 25 25 28 25 25 24 26 29 31 32 34 35 35 34 36 37 36 37 37 37 36 34 32 31 29 30 28
8 11 13 18 23 23 23 20 18 19 19 18 20 21 23 25 26 28 27 26 29 29 32 31 35 36 36 37 40 42 41 40 40 40 41 38 37 38 36 35 33 32 31
14 12 15 17 21 22 21 20 20 19 18 17 18 19 20 22 24 27 29 30 33 34 35 36 39 41 39 46 42 43 41 44 44 45 45 42 44 41 41 39 37 36 34
23 19 17 17 17 21 22 21 19 16 16 16 16 18 20 22 24 26 29 31 33 35 37 40 42 43 42 45 47 48 48 49 49 48 48 48 44 47 39 43 38 37 38
28 24 20 19 19 19 20 21 21 20 19 19 18 18 20 22 26 30 33 36 38 41 42 43 45 47 48 46 47 50 53 52 53 53 50 52 50 47 50 49 41 43 40
31 27 24 20 20 20 19 20 20 20 19 19 19 22 26 30 33 36 39 41 41 44 47 48 50 50 52 49 47 45 48 48 50 55 59 49 48 46 41 48 48 48 46
33 29 27 24 23 22 23 23 21 21 22 24 25 28 33 38 42 45 46 46 46 46 47 49 50 50 50 51 50 47 45 46 48 55 50 52 50 53 57 52 55 48 50
32 30 30 26 26 26 26 25 24 25 28 30 33 37 40 42 46 50 51 54 53 51 51 51 51 50 48 48 49 52 52 52 49 45 58 57 51 52 50 52 56 55 49
37 33 30 28 29 29 28 28 29 31 32 34 39 42 45 49 54 58 56 56 54 52 51 51 52 51 50 49 50 52 52 53 54 51 46 50 43 49 49 35 34 46 49
Wind_Direction
134 139 148 140 125 123 112 104 107 101 109 110 111 112 116 117 114 104 100 92 79 61 35 19 13 0 357 351 348 356 0 2 6 42 40 33 31 46 49 54 51 47 44
116 125 155 162 158 149 134 125 112 112 107 115 123 126 125 121 112 112 112 100 79 25 351 341 345 341 340 336 342 351 347 360 12 27 33 38 36 53 56 49 57 53 49
95 121 171 181 176 175 173 151 126 133 127 133 140 150 147 146 149 142 148 160 209 292 311 321 335 335 336 338 339 343 351 2 353 6 20 34 42 53 65 47 50 43 47
75 106 184 197 183 187 188 168 161 155 139 136 142 154 165 157 160 178 226 264 289 300 310 323 331 332 335 337 338 341 355 360 334 314 340 4 22 31 58 50 45 32 34
53 52 99 201 189 189 201 191 185 184 168 147 157 159 188 184 193 188 220 257 283 298 306 318 322 326 324 328 331 337 351 342 300 283 312 324 335 325 20 26 29 33 21
64 55 48 178 194 192 204 206 202 207 210 207 190 195 213 219 221 246 234 274 290 296 305 311 318 323 323 324 325 328 332 342 305 277 282 297 305 297 311 338 345 357 5
71 38 53 169 195 194 207 216 221 223 224 235 237 235 235 238 247 249 263 273 281 290 294 303 316 322 324 323 319 323 325 335 301 291 279 280 283 296 303 312 322 328 341
98 55 65 168 189 195 210 224 234 239 239 239 242 242 243 245 244 249 260 267 274 278 281 288 300 311 316 319 317 319 318 322 294 273 279 278 280 281 289 299 309 315 322
178 160 191 190 196 201 214 227 239 247 253 252 252 256 260 264 265 263 261 263 267 276 283 282 287 288 290 292 298 307 310 314 313 296 268 274 278 286 290 289 293 299 307
222 220 217 215 214 219 227 234 242 249 255 259 265 267 264 265 265 265 265 265 268 271 275 280 280 282 279 277 285 295 296 299 305 300 288 272 269 270 278 286 291 294 295
239 229 222 228 225 233 244 254 261 262 260 260 262 267 270 267 268 267 266 266 267 268 267 269 274 278 281 280 277 278 284 286 292 288 283 276 269 267 263 273 279 284 287
239 232 238 247 254 255 257 260 265 271 272 269 266 266 265 267 268 270 272 271 269 270 271 272 271 271 274 277 277 275 277 281 281 279 275 273 268 267 269 270 274 280 283
273 263 263 258 260 265 271 274 270 266 267 271 272 270 269 270 271 271 271 271 268 264 263 264 265 270 271 271 272 275 277 279 279 277 268 268 267 261 263 270 271 272 276
287 278 287 272 275 280 281 294 277 263 262 267 270 270 269 269 273 275 277 276 276 273 270 268 264 262 263 265 271 274 274 273 276 276 273 268 266 263 262 266 272 272 272
297 282 270 268 270 271 279 286 280 265 257 262 271 276 274 272 271 272 271 273 274 276 276 270 269 268 268 269 269 268 270 273 273 271 271 269 267 265 261 259 263 269 270
292 285 271 266 264 268 274 274 271 267 260 265 273 273 273 271 270 271 271 273 273 272 270 269 267 265 266 267 267 268 266 266 270 272 272 266 262 266 269 266 261 261 262
284 275 263 257 263 266 267 270 268 265 263 269 274 277 273 273 274 273 270 269 272 271 270 270 275 273 269 268 270 270 269 272 270 267 265 267 266 263 264 264 265 264 264
285 277 267 258 257 263 265 270 263 270 276 279 279 279 278 277 277 278 279 279 283 277 281 282 284 282 279 275 273 273 274 273 273 268 267 268 268 265 263 262 261 263 262
288 289 288 267 262 265 271 273 277 275 274 273 273 273 274 277 278 281 285 282 282 283 280 282 279 281 277 277 277 273 271 272 274 274 271 267 266 267 266 264 261 259 259
288 289 293 298 276 266 264 270 271 271 272 268 265 265 271 279 282 284 284 284 283 281 278 279 278 279 275 276 275 275 274 274 272 273 271 271 269 266 268 269 268 266 263
283 281 286 292 293 276 265 265 262 263 272 277 280 285 287 288 289 290 289 287 285 281 278 276 275 273 269 269 267 271 270 268 270 267 270 269 267 268 269 267 268 269 269
278 279 282 286 288 278 260 259 261 266 266 268 275 284 290 294 297 300 300 299 292 285 279 273 270 268 268 267 266 268 269 264 265 268 266 268 268 265 273 263 264 265 270
275 276 278 279 281 271 258 255 253 255 259 267 275 284 295 299 300 302 304 299 287 278 275 272 270 269 269 266 266 270 271 272 276 267 266 271 271 265 265 265 265 271 269
265 266 270 273 271 261 256 253 253 260 268 276 282 289 294 302 304 304 304 301 294 285 280 277 276 275 274 273 272 270 267 269 273 274 271 267 266 260 269 270 268 267 266
252 257 266 266 262 258 259 260 265 270 274 282 292 297 297 301 308 308 306 300 294 288 282 280 277 275 275 275 274 272 271 268 264 267 267 271 268 266 270 275 268 270 263
252 255 258 258 259 257 260 263 267 274 280 288 293 296 301 308 307 304 296 291 289 287 283 280 278 277 278 278 278 275 276 279 280 275 270 265 272 263 261 256 264 267 259